| time (UTC) | temp F | wind direction | speed knots | gust knots | rain 1hr in | rain 24hr in | rain mn in | humidity % | barometer mb |
| 20260506030013 | 63 | 65 | 0.0 | 3.5 | 0.00 | 0.00 | 0.00 | 37 | 1014.9 |
| 20260506025503 | 63 | 340 | 0.9 | 3.5 | 0.00 | 0.00 | 0.00 | 37 | 1014.9 |
| 20260506025004 | 64 | 295 | 1.7 | 3.5 | 0.00 | 0.00 | 0.00 | 36 | 1014.8 |
| 20260506024513 | 64 | 340 | 0.9 | 3.5 | 0.00 | 0.00 | 0.00 | 36 | 1014.7 |
| 20260506024004 | 64 | 263 | 0.9 | 4.3 | 0.00 | 0.00 | 0.00 | 35 | 1014.7 |
| 20260506023504 | 65 | 321 | 2.6 | 7.8 | 0.00 | 0.00 | 0.00 | 35 | 1014.6 |
| 20260506023014 | 65 | 265 | 1.7 | 7.8 | 0.00 | 0.00 | 0.00 | 34 | 1014.6 |
| 20260506022509 | 65 | 279 | 1.7 | 9.6 | 0.00 | 0.00 | 0.00 | 34 | 1014.5 |
| 20260506022010 | 66 | 273 | 3.5 | 10.4 | 0.00 | 0.00 | 0.00 | 33 | 1014.6 |
| 20260506021516 | 66 | 325 | 1.7 | 10.4 | 0.00 | 0.00 | 0.00 | 33 | 1014.5 |
| 20260506021008 | 67 | 305 | 4.3 | 10.4 | 0.00 | 0.00 | 0.00 | 32 | 1014.5 |
| 20260506020508 | 67 | 292 | 3.5 | 10.4 | 0.00 | 0.00 | 0.00 | 33 | 1014.4 |
| 20260506020020 | 67 | 314 | 1.7 | 12.2 | 0.00 | 0.00 | 0.00 | 34 | 1014.4 |
| 20260506015509 | 67 | 348 | 3.5 | 12.2 | 0.00 | 0.00 | 0.00 | 33 | 1014.4 |
| 20260506015005 | 67 | 299 | 3.5 | 11.3 | 0.00 | 0.00 | 0.00 | 33 | 1014.4 |
| 20260506014504 | 67 | 330 | 4.3 | 12.2 | 0.00 | 0.00 | 0.00 | 31 | 1014.3 |
| 20260506014004 | 68 | 350 | 5.2 | 12.2 | 0.00 | 0.00 | 0.00 | 31 | 1014.3 |
| 20260506013504 | 68 | 319 | 3.5 | 11.3 | 0.00 | 0.00 | 0.00 | 32 | 1014.2 |
| 20260506013009 | 68 | 35 | 4.3 | 13.9 | 0.00 | 0.00 | 0.00 | 31 | 1014.2 |
| 20260506012503 | 68 | 333 | 5.2 | 13.9 | 0.00 | 0.00 | 0.00 | 33 | 1014.2 |
| 20260506012009 | 68 | 338 | 4.3 | 13.9 | 0.00 | 0.00 | 0.00 | 33 | 1014.2 |
| 20260506011515 | 68 | 355 | 7.8 | 13.9 | 0.00 | 0.00 | 0.00 | 30 | 1014.2 |
| 20260506011008 | 69 | 323 | 3.5 | 11.3 | 0.00 | 0.00 | 0.00 | 32 | 1014.1 |
| 20260506010504 | 69 | 346 | 5.2 | 12.2 | 0.00 | 0.00 | 0.00 | 32 | 1014.1 |
| 20260506010025 | 69 | 316 | 4.3 | 13.9 | 0.00 | 0.00 | 0.00 | 32 | 1014.0 |
| 20260506005508 | 68 | 275 | 6.1 | 13.9 | 0.00 | 0.00 | 0.00 | 31 | 1014.1 |
| 20260506005008 | 70 | 296 | 6.1 | 13.9 | 0.00 | 0.00 | 0.00 | 30 | 1014.1 |
| 20260506004522 | 71 | 336 | 6.1 | 12.2 | 0.00 | 0.00 | 0.00 | 30 | 1014.0 |
| 20260506004009 | 70 | 360 | 5.2 | 12.2 | 0.00 | 0.00 | 0.00 | 30 | 1014.0 |
| 20260506003503 | 71 | 302 | 5.2 | 11.3 | 0.00 | 0.00 | 0.00 | 32 | 1014.0 |
| 20260506003006 | 71 | 307 | 4.3 | 13.9 | 0.00 | 0.00 | 0.00 | 29 | 1013.9 |
| 20260506002504 | 71 | 293 | 6.1 | 13.9 | 0.00 | 0.00 | 0.00 | 30 | 1013.9 |
| 20260506002006 | 70 | 252 | 2.6 | 12.2 | 0.00 | 0.00 | 0.00 | 33 | 1013.9 |
| 20260506001510 | 69 | 306 | 3.5 | 11.3 | 0.00 | 0.00 | 0.00 | 34 | 1013.9 |
| 20260506001006 | 70 | 360 | 4.3 | 14.8 | 0.00 | 0.00 | 0.00 | 30 | 1013.9 |
| 20260506000506 | 71 | 315 | 4.3 | 14.8 | 0.00 | 0.00 | 0.00 | 31 | 1014.0 |
| 20260506000017 | 70 | 266 | 6.1 | 13.0 | 0.00 | 0.00 | 0.00 | 33 | 1014.0 |
| 20260505235506 | 69 | 304 | 4.3 | 11.3 | 0.00 | 0.00 | 0.00 | 31 | 1013.7 |
| 20260505235009 | 68 | 279 | 2.6 | 7.8 | 0.00 | 0.00 | 0.00 | 34 | 1013.9 |
| 20260505234527 | 67 | 303 | 4.3 | 14.8 | 0.00 | 0.00 | 0.00 | 34 | 1013.9 |
| 20260505234011 | 68 | 290 | 3.5 | 14.8 | 0.00 | 0.00 | 0.00 | 34 | 1013.8 |
| 20260505233509 | 69 | 301 | 5.2 | 13.9 | 0.00 | 0.00 | 0.00 | 33 | 1013.8 |
| 20260505233025 | 70 | 322 | 7.0 | 13.9 | 0.00 | 0.00 | 0.00 | 31 | 1014.0 |
| 20260505232506 | 71 | 360 | 4.3 | 13.0 | 0.00 | 0.00 | 0.00 | 32 | 1013.8 |
| 20260505232003 | 70 | 302 | 3.5 | 13.0 | 0.00 | 0.00 | 0.00 | 33 | 1013.9 |
| 20260505231507 | 69 | 303 | 3.5 | 9.6 | 0.00 | 0.00 | 0.00 | 34 | 1013.8 |
| 20260505231009 | 67 | 346 | 4.3 | 9.6 | 0.00 | 0.00 | 0.00 | 36 | 1013.9 |
| 20260505230503 | 68 | 341 | 4.3 | 9.6 | 0.00 | 0.00 | 0.00 | 35 | 1014.0 |
| 20260505230033 | 69 | 307 | 5.2 | 13.0 | 0.00 | 0.00 | 0.00 | 34 | 1013.9 |
| 20260505225507 | 70 | 247 | 4.3 | 13.0 | 0.00 | 0.00 | 0.00 | 35 | 1013.9 |
| 20260505225007 | 71 | 324 | 3.5 | 11.3 | 0.00 | 0.00 | 0.00 | 35 | 1013.8 |
| 20260505224518 | 70 | 300 | 4.3 | 11.3 | 0.00 | 0.00 | 0.00 | 38 | 1013.9 |
| 20260505224011 | 68 | 303 | 6.1 | 11.3 | 0.00 | 0.00 | 0.00 | 34 | 1013.9 |
| 20260505223512 | 68 | 331 | 5.2 | 10.4 | 0.00 | 0.00 | 0.00 | 36 | 1013.9 |
| 20260505223027 | 70 | 253 | 5.2 | 13.0 | 0.00 | 0.00 | 0.00 | 34 | 1013.9 |
| 20260505222509 | 69 | 303 | 5.2 | 13.0 | 0.00 | 0.00 | 0.00 | 38 | 1014.0 |
| 20260505222013 | 69 | 311 | 6.1 | 12.2 | 0.00 | 0.00 | 0.00 | 34 | 1014.0 |
| 20260505221533 | 70 | 325 | 5.2 | 12.2 | 0.00 | 0.00 | 0.00 | 39 | 1014.0 |
| 20260505221010 | 70 | 327 | 4.3 | 11.3 | 0.00 | 0.00 | 0.00 | 35 | 1013.9 |
| 20260505220504 | 70 | 298 | 5.2 | 13.0 | 0.00 | 0.00 | 0.00 | 38 | 1013.9 |
| 20260505220011 | 69 | 257 | 3.5 | 13.9 | 0.00 | 0.00 | 0.00 | 36 | 1014.0 |
| 20260505215506 | 69 | 285 | 4.3 | 13.9 | 0.00 | 0.00 | 0.00 | 37 | 1014.2 |
| 20260505215007 | 67 | 317 | 2.6 | 10.4 | 0.00 | 0.00 | 0.00 | 37 | 1014.0 |
| 20260505214519 | 67 | 302 | 5.2 | 9.6 | 0.00 | 0.00 | 0.00 | 36 | 1014.0 |
| 20260505214009 | 67 | 40 | 2.6 | 11.3 | 0.00 | 0.00 | 0.00 | 36 | 1014.0 |
| 20260505213506 | 67 | 344 | 3.5 | 13.0 | 0.00 | 0.00 | 0.00 | 44 | 1014.1 |
| 20260505213021 | 66 | 328 | 3.5 | 13.0 | 0.00 | 0.00 | 0.00 | 37 | 1014.0 |
| 20260505212509 | 67 | 338 | 7.0 | 13.0 | 0.00 | 0.00 | 0.00 | 37 | 1014.1 |
| 20260505212010 | 68 | 267 | 3.5 | 13.0 | 0.00 | 0.00 | 0.00 | 37 | 1014.1 |
| 20260505211526 | 68 | 231 | 3.5 | 9.6 | 0.00 | 0.00 | 0.00 | 35 | 1014.1 |
| 20260505211008 | 67 | 5 | 5.2 | 9.6 | 0.00 | 0.00 | 0.00 | 39 | 1014.2 |
| 20260505210510 | 68 | 351 | 4.3 | 14.8 | 0.00 | 0.00 | 0.00 | 37 | 1014.2 |
| 20260505210026 | 68 | 327 | 5.2 | 14.8 | 0.00 | 0.00 | 0.00 | 36 | 1014.1 |
| 20260505205507 | 69 | 296 | 5.2 | 12.2 | 0.00 | 0.00 | 0.00 | 32 | 1014.1 |
| 20260505205007 | 68 | 15 | 5.2 | 12.2 | 0.00 | 0.00 | 0.00 | 31 | 1014.2 |
| 20260505204517 | 66 | 285 | 4.3 | 11.3 | 0.00 | 0.00 | 0.00 | 37 | 1014.2 |
| 20260505204006 | 65 | 304 | 3.5 | 9.6 | 0.00 | 0.00 | 0.00 | 39 | 1014.2 |
| 20260505203506 | 66 | 159 | 3.5 | 9.6 | 0.00 | 0.00 | 0.00 | 39 | 1014.2 |
| 20260505203030 | 65 | 270 | 1.7 | 7.8 | 0.00 | 0.00 | 0.00 | 45 | 1014.2 |
| 20260505202508 | 65 | 108 | 2.6 | 11.3 | 0.00 | 0.00 | 0.00 | 45 | 1014.1 |
| 20260505202013 | 64 | 247 | 2.6 | 11.3 | 0.00 | 0.00 | 0.00 | 43 | 1014.2 |
| 20260505201522 | 65 | 306 | 5.2 | 13.0 | 0.00 | 0.00 | 0.00 | 43 | 1014.2 |
| 20260505201008 | 65 | 355 | 5.2 | 13.0 | 0.00 | 0.00 | 0.00 | 44 | 1014.2 |
| 20260505200514 | 65 | 273 | 2.6 | 7.8 | 0.00 | 0.00 | 0.00 | 45 | 1014.2 |
| 20260505200034 | 65 | 328 | 1.7 | 6.1 | 0.00 | 0.00 | 0.00 | 42 | 1014.2 |
| 20260505195506 | 66 | 286 | 1.7 | 6.1 | 0.00 | 0.00 | 0.00 | 45 | 1014.4 |
| 20260505195011 | 65 | 330 | 1.7 | 6.1 | 0.00 | 0.00 | 0.00 | 45 | 1014.3 |
| 20260505194530 | 64 | 302 | 1.7 | 5.2 | 0.00 | 0.00 | 0.00 | 45 | 1014.3 |
| 20260505194007 | 64 | 302 | 1.7 | 7.8 | 0.00 | 0.00 | 0.00 | 45 | 1014.4 |
| 20260505193509 | 64 | 296 | 3.5 | 8.7 | 0.00 | 0.00 | 0.00 | 45 | 1014.5 |
| 20260505193017 | 65 | 316 | 3.5 | 9.6 | 0.00 | 0.00 | 0.00 | 45 | 1014.4 |
| 20260505192507 | 64 | 236 | 0.9 | 9.6 | 0.00 | 0.00 | 0.00 | 52 | 1014.5 |
| 20260505192009 | 64 | 195 | 2.6 | 9.6 | 0.00 | 0.00 | 0.00 | 57 | 1014.4 |
| 20260505191528 | 63 | 178 | 4.3 | 8.7 | 0.00 | 0.00 | 0.00 | 54 | 1014.4 |
| 20260505191008 | 63 | 157 | 4.3 | 8.7 | 0.00 | 0.00 | 0.00 | 54 | 1014.4 |
| 20260505190511 | 63 | 177 | 3.5 | 8.7 | 0.00 | 0.00 | 0.00 | 55 | 1014.4 |
| 20260505190027 | 63 | 191 | 3.5 | 8.7 | 0.00 | 0.00 | 0.00 | 54 | 1014.4 |
| 20260505185511 | 62 | 292 | 2.6 | 7.8 | 0.00 | 0.00 | 0.00 | 57 | 1014.4 |
| 20260505185011 | 61 | 195 | 2.6 | 7.8 | 0.00 | 0.00 | 0.00 | 56 | 1014.4 |
| 20260505184527 | 61 | 213 | 0.0 | 10.4 | 0.00 | 0.00 | 0.00 | 56 | 1014.4 |
| 20260505184010 | 61 | 290 | 1.7 | 10.4 | 0.00 | 0.00 | 0.00 | 60 | 1014.4 |
| 20260505183510 | 60 | 188 | 2.6 | 9.6 | 0.00 | 0.00 | 0.00 | 60 | 1014.4 |
| 20260505183030 | 60 | 69 | 1.7 | 6.1 | 0.00 | 0.00 | 0.00 | 58 | 1014.4 |
| 20260505182507 | 59 | 213 | 2.6 | 7.0 | 0.00 | 0.00 | 0.00 | 57 | 1014.4 |
| 20260505182010 | 59 | 278 | 2.6 | 7.0 | 0.00 | 0.00 | 0.00 | 61 | 1014.4 |
| 20260505181519 | 59 | 208 | 1.7 | 7.0 | 0.00 | 0.00 | 0.00 | 61 | 1014.4 |
| 20260505181006 | 58 | 190 | 2.6 | 6.1 | 0.00 | 0.00 | 0.00 | 66 | 1014.4 |
| 20260505180505 | 58 | 144 | 1.7 | 7.8 | 0.00 | 0.00 | 0.00 | 65 | 1014.4 |
| 20260505180003 | 57 | 171 | 0.9 | 7.8 | 0.00 | 0.00 | 0.00 | 67 | 1014.5 |
| 20260505175503 | 57 | 173 | 3.5 | 7.0 | 0.00 | 0.00 | 0.00 | 66 | 1014.6 |
| 20260505175004 | 57 | 172 | 1.7 | 7.8 | 0.00 | 0.00 | 0.00 | 67 | 1014.4 |
| 20260505174511 | 57 | 180 | 1.7 | 7.8 | 0.00 | 0.00 | 0.00 | 68 | 1014.4 |
| 20260505174005 | 57 | 119 | 1.7 | 4.3 | 0.00 | 0.00 | 0.00 | 65 | 1014.4 |
| 20260505173503 | 56 | 330 | 0.9 | 4.3 | 0.00 | 0.00 | 0.00 | 72 | 1014.5 |
| 20260505173032 | 55 | 288 | 1.7 | 4.3 | 0.00 | 0.00 | 0.00 | 72 | 1014.5 |
| 20260505172505 | 54 | 5 | 1.7 | 7.0 | 0.00 | 0.00 | 0.00 | 72 | 1014.5 |
| 20260505172008 | 54 | 315 | 0.9 | 7.0 | 0.00 | 0.00 | 0.00 | 71 | 1014.6 |
| 20260505171518 | 54 | 302 | 1.7 | 7.0 | 0.00 | 0.00 | 0.00 | 72 | 1014.6 |
| 20260505171010 | 54 | 190 | 1.7 | 3.5 | 0.00 | 0.00 | 0.00 | 74 | 1014.7 |
| 20260505170506 | 53 | 255 | 0.9 | 3.5 | 0.00 | 0.00 | 0.00 | 75 | 1014.7 |
| 20260505170024 | 52 | 270 | 0.9 | 3.5 | 0.00 | 0.00 | 0.00 | 78 | 1014.7 |
| 20260505165508 | 52 | 199 | 0.9 | 3.5 | 0.00 | 0.00 | 0.00 | 76 | 1014.7 |
| 20260505165003 | 51 | 252 | 1.7 | 4.3 | 0.00 | 0.00 | 0.00 | 80 | 1014.6 |
| 20260505164505 | 51 | 175 | 0.9 | 4.3 | 0.00 | 0.00 | 0.00 | 78 | 1014.6 |
| 20260505164003 | 51 | 219 | 1.7 | 4.3 | 0.00 | 0.00 | 0.00 | 81 | 1014.6 |
| 20260505163502 | 50 | 156 | 2.6 | 7.8 | 0.00 | 0.00 | 0.00 | 81 | 1014.6 |
| 20260505163012 | 50 | 206 | 3.5 | 7.8 | 0.00 | 0.00 | 0.00 | 82 | 1014.7 |
| 20260505162504 | 50 | 186 | 2.6 | 6.1 | 0.00 | 0.00 | 0.00 | 82 | 1014.8 |
| 20260505162007 | 49 | 211 | 2.6 | 6.1 | 0.00 | 0.00 | 0.00 | 83 | 1014.7 |
| 20260505161510 | 49 | 220 | 1.7 | 7.0 | 0.00 | 0.00 | 0.00 | 83 | 1014.7 |
| 20260505161009 | 48 | 207 | 4.3 | 7.0 | 0.00 | 0.00 | 0.00 | 84 | 1014.7 |
| 20260505160504 | 48 | 207 | 2.6 | 7.0 | 0.00 | 0.00 | 0.00 | 85 | 1014.8 |
| 20260505153009 | 46 | 180 | 2.6 | 5.2 | 0.00 | 0.00 | 0.00 | 90 | 1014.6 |
| 20260505152505 | 46 | 200 | 3.5 | 6.1 | 0.00 | 0.00 | 0.00 | 90 | 1014.5 |
| 20260505152006 | 45 | 197 | 2.6 | 6.1 | 0.00 | 0.00 | 0.00 | 91 | 1014.4 |
| 20260505151507 | 45 | 209 | 3.5 | 5.2 | 0.00 | 0.00 | 0.00 | 91 | 1014.3 |
| 20260505151003 | 45 | 200 | 3.5 | 5.2 | 0.00 | 0.00 | 0.00 | 91 | 1014.3 |
| 20260505150506 | 45 | 214 | 1.7 | 4.3 | 0.00 | 0.00 | 0.00 | 91 | 1014.2 |
| 20260505140505 | 44 | 219 | 0.0 | 3.5 | 0.00 | 0.00 | 0.00 | 92 | 1013.5 |
| 20260505125005 | 44 | 100 | 0.0 | 0.0 | 0.00 | 0.00 | 0.00 | 92 | 1012.9 |
| 20260505124512 | 44 | 100 | 0.0 | 0.0 | 0.00 | 0.00 | 0.00 | 92 | 1013.0 |
| 20260505124010 | 44 | 100 | 0.0 | 0.0 | 0.00 | 0.00 | 0.00 | 92 | 1013.0 |
| 20260505123506 | 43 | 100 | 0.0 | 0.0 | 0.00 | 0.00 | 0.00 | 92 | 1012.9 |
| 20260505123017 | 43 | 100 | 0.0 | 0.0 | 0.00 | 0.00 | 0.00 | 93 | 1012.9 |
| 20260505122507 | 43 | 100 | 0.0 | 0.0 | 0.00 | 0.00 | 0.00 | 92 | 1012.9 |
| 20260505122007 | 43 | 100 | 0.0 | 0.0 | 0.00 | 0.00 | 0.00 | 93 | 1012.9 |
| 20260505121524 | 42 | 100 | 0.0 | 0.0 | 0.00 | 0.00 | 0.00 | 92 | 1013.0 |
| 20260505121010 | 42 | 100 | 0.0 | 0.0 | 0.00 | 0.00 | 0.00 | 91 | 1012.8 |
| 20260505120511 | 42 | 100 | 0.0 | 0.9 | 0.00 | 0.00 | 0.00 | 91 | 1012.8 |
| 20260505120024 | 42 | 100 | 0.0 | 0.9 | 0.00 | 0.00 | 0.00 | 90 | 1012.8 |
| 20260505115507 | 42 | 100 | 0.0 | 4.3 | 0.00 | 0.00 | 0.00 | 90 | 1012.8 |
| 20260505115011 | 43 | 103 | 0.0 | 5.2 | 0.00 | 0.00 | 0.00 | 90 | 1012.8 |
| 20260505114510 | 43 | 144 | 1.7 | 5.2 | 0.00 | 0.00 | 0.00 | 91 | 1012.8 |
| 20260505114006 | 43 | 186 | 0.0 | 1.7 | 0.00 | 0.00 | 0.00 | 89 | 1012.6 |
| 20260505113503 | 43 | 86 | 0.0 | 0.0 | 0.00 | 0.00 | 0.00 | 89 | 1012.6 |
| 20260505113015 | 43 | 86 | 0.0 | 1.7 | 0.00 | 0.00 | 0.00 | 88 | 1012.6 |
| 20260505112504 | 44 | 65 | 0.0 | 1.7 | 0.00 | 0.00 | 0.00 | 89 | 1012.6 |
| 20260505112005 | 44 | 29 | 0.0 | 1.7 | 0.00 | 0.00 | 0.00 | 88 | 1012.5 |
| 20260505111519 | 44 | 205 | 0.0 | 1.7 | 0.00 | 0.00 | 0.00 | 88 | 1012.6 |
| 20260505111008 | 45 | 94 | 0.0 | 2.6 | 0.00 | 0.00 | 0.00 | 88 | 1012.5 |
| 20260505110509 | 45 | 82 | 0.0 | 7.0 | 0.00 | 0.00 | 0.00 | 88 | 1012.5 |
| 20260505102006 | 46 | 207 | 2.6 | 7.0 | 0.00 | 0.00 | 0.00 | 87 | 1012.6 |
| 20260505101516 | 46 | 165 | 2.6 | 7.0 | 0.00 | 0.00 | 0.00 | 87 | 1012.6 |
| 20260505101007 | 46 | 151 | 1.7 | 6.1 | 0.00 | 0.00 | 0.00 | 87 | 1012.5 |
| 20260505100507 | 47 | 186 | 3.5 | 6.1 | 0.00 | 0.00 | 0.00 | 87 | 1012.6 |
| 20260505100024 | 47 | 187 | 1.7 | 7.8 | 0.00 | 0.00 | 0.00 | 87 | 1012.5 |
| 20260505095510 | 47 | 156 | 1.7 | 7.8 | 0.00 | 0.00 | 0.00 | 87 | 1012.4 |
| 20260505095008 | 47 | 148 | 2.6 | 6.1 | 0.00 | 0.00 | 0.00 | 87 | 1012.5 |
| 20260505094525 | 47 | 163 | 0.9 | 5.2 | 0.00 | 0.00 | 0.00 | 87 | 1012.5 |
| 20260505094012 | 47 | 132 | 0.0 | 5.2 | 0.00 | 0.00 | 0.00 | 87 | 1012.3 |
| 20260505093508 | 47 | 206 | 2.6 | 6.1 | 0.00 | 0.00 | 0.00 | 87 | 1012.4 |
| 20260505093028 | 47 | 163 | 2.6 | 6.1 | 0.00 | 0.00 | 0.00 | 87 | 1012.4 |
| 20260505092509 | 47 | 162 | 1.7 | 5.2 | 0.00 | 0.00 | 0.00 | 87 | 1012.6 |
| 20260505092012 | 47 | 184 | 0.0 | 1.7 | 0.00 | 0.00 | 0.00 | 87 | 1012.8 |
| 20260505091512 | 47 | 155 | 0.0 | 1.7 | 0.00 | 0.00 | 0.00 | 87 | 1012.6 |
| 20260505091006 | 47 | 155 | 0.0 | 1.7 | 0.00 | 0.00 | 0.00 | 87 | 1012.7 |
| 20260505090507 | 47 | 157 | 0.0 | 2.6 | 0.00 | 0.00 | 0.00 | 87 | 1012.5 |
| 20260505090019 | 47 | 165 | 0.0 | 4.3 | 0.00 | 0.00 | 0.00 | 87 | 1012.6 |
| 20260505085512 | 47 | 160 | 0.9 | 4.3 | 0.00 | 0.00 | 0.00 | 87 | 1012.5 |
| 20260505085008 | 47 | 114 | 0.9 | 3.5 | 0.00 | 0.00 | 0.00 | 86 | 1012.7 |
| 20260505084533 | 48 | 128 | 0.0 | 3.5 | 0.00 | 0.00 | 0.00 | 87 | 1012.7 |
| 20260505084009 | 48 | 192 | 0.9 | 3.5 | 0.00 | 0.00 | 0.00 | 86 | 1012.8 |
| 20260505083511 | 47 | 186 | 0.0 | 5.2 | 0.00 | 0.00 | 0.00 | 86 | 1012.8 |
| 20260505083003 | 48 | 173 | 2.6 | 6.1 | 0.00 | 0.00 | 0.00 | 86 | 1012.8 |
| 20260505082503 | 48 | 145 | 1.7 | 6.1 | 0.00 | 0.00 | 0.00 | 86 | 1012.9 |
| 20260505082004 | 47 | 145 | 0.9 | 4.3 | 0.00 | 0.00 | 0.00 | 86 | 1012.9 |
| 20260505081508 | 48 | 151 | 0.9 | 4.3 | 0.00 | 0.00 | 0.00 | 86 | 1012.8 |
| 20260505081005 | 48 | 165 | 1.7 | 5.2 | 0.00 | 0.00 | 0.00 | 86 | 1012.8 |
| 20260505080504 | 48 | 156 | 0.9 | 5.2 | 0.00 | 0.00 | 0.00 | 86 | 1012.8 |
| 20260505080014 | 48 | 163 | 1.7 | 5.2 | 0.00 | 0.00 | 0.00 | 86 | 1012.8 |
| 20260505075506 | 48 | 180 | 0.9 | 5.2 | 0.00 | 0.00 | 0.00 | 86 | 1012.8 |
| 20260505075008 | 48 | 149 | 2.6 | 5.2 | 0.00 | 0.00 | 0.00 | 86 | 1012.9 |
| 20260505074518 | 48 | 155 | 0.9 | 3.5 | 0.00 | 0.00 | 0.00 | 86 | 1012.8 |
| 20260505074005 | 48 | 167 | 0.0 | 2.6 | 0.00 | 0.00 | 0.00 | 86 | 1012.8 |
| 20260505073509 | 48 | 162 | 0.9 | 2.6 | 0.00 | 0.00 | 0.00 | 86 | 1012.8 |
| 20260505073022 | 48 | 204 | 0.0 | 4.3 | 0.00 | 0.00 | 0.00 | 85 | 1012.9 |
| 20260505072510 | 48 | 195 | 0.9 | 6.1 | 0.00 | 0.00 | 0.00 | 86 | 1012.8 |
| 20260505072010 | 48 | 119 | 0.0 | 8.7 | 0.00 | 0.00 | 0.00 | 85 | 1012.8 |
| 20260505071530 | 48 | 162 | 2.6 | 8.7 | 0.00 | 0.00 | 0.00 | 85 | 1012.6 |
| 20260505071005 | 48 | 144 | 2.6 | 7.8 | 0.00 | 0.00 | 0.00 | 85 | 1012.7 |
| 20260505070505 | 49 | 148 | 4.3 | 11.3 | 0.00 | 0.00 | 0.00 | 85 | 1012.7 |
| 20260505070011 | 48 | 148 | 5.2 | 11.3 | 0.00 | 0.00 | 0.00 | 85 | 1012.6 |
| 20260505065505 | 49 | 144 | 3.5 | 9.6 | 0.00 | 0.00 | 0.00 | 85 | 1012.5 |
| 20260505065008 | 49 | 141 | 5.2 | 9.6 | 0.00 | 0.00 | 0.00 | 85 | 1012.4 |
| 20260505064517 | 49 | 173 | 4.3 | 7.8 | 0.00 | 0.00 | 0.00 | 85 | 1012.2 |
| 20260505064008 | 49 | 169 | 2.6 | 7.0 | 0.00 | 0.00 | 0.00 | 85 | 1012.1 |
| 20260505063507 | 49 | 166 | 3.5 | 9.6 | 0.00 | 0.00 | 0.00 | 85 | 1012.2 |
| 20260505063031 | 49 | 170 | 4.3 | 9.6 | 0.00 | 0.00 | 0.00 | 84 | 1012.1 |
| 20260505062509 | 49 | 169 | 2.6 | 7.8 | 0.00 | 0.00 | 0.00 | 84 | 1012.3 |
| 20260505062009 | 49 | 190 | 2.6 | 8.7 | 0.00 | 0.00 | 0.00 | 84 | 1012.3 |
| 20260505061531 | 49 | 128 | 2.6 | 8.7 | 0.00 | 0.00 | 0.00 | 84 | 1012.1 |
| 20260505061007 | 49 | 184 | 4.3 | 8.7 | 0.00 | 0.00 | 0.00 | 84 | 1012.0 |
| 20260505060512 | 49 | 143 | 3.5 | 7.8 | 0.00 | 0.00 | 0.00 | 83 | 1011.9 |
| 20260505060026 | 49 | 148 | 3.5 | 11.3 | 0.00 | 0.00 | 0.00 | 83 | 1011.8 |
| 20260505055507 | 50 | 146 | 4.3 | 11.3 | 0.00 | 0.00 | 0.00 | 82 | 1011.7 |
| 20260505055005 | 50 | 181 | 4.3 | 9.6 | 0.00 | 0.00 | 0.00 | 81 | 1011.8 |
| 20260505054520 | 51 | 194 | 5.2 | 9.6 | 0.00 | 0.00 | 0.00 | 79 | 1011.6 |
| 20260505054007 | 51 | 182 | 3.5 | 8.7 | 0.00 | 0.00 | 0.00 | 79 | 1011.6 |
| 20260505053509 | 51 | 181 | 3.5 | 9.6 | 0.00 | 0.00 | 0.00 | 78 | 1011.6 |
| 20260505053015 | 52 | 193 | 5.2 | 11.3 | 0.00 | 0.00 | 0.00 | 78 | 1011.5 |
| 20260505052507 | 52 | 163 | 7.0 | 11.3 | 0.00 | 0.00 | 0.00 | 77 | 1011.3 |
| 20260505052010 | 52 | 164 | 2.6 | 6.1 | 0.00 | 0.00 | 0.00 | 74 | 1011.2 |
| 20260505051532 | 53 | 292 | 0.0 | 2.6 | 0.00 | 0.00 | 0.00 | 73 | 1011.2 |
| 20260505051009 | 53 | 304 | 0.0 | 2.6 | 0.00 | 0.00 | 0.00 | 72 | 1011.1 |
| 20260505050510 | 53 | 304 | 0.9 | 2.6 | 0.00 | 0.00 | 0.00 | 71 | 1011.0 |
| 20260505041520 | 54 | 136 | 3.5 | 8.7 | 0.00 | 0.00 | 0.00 | 69 | 1010.9 |
| 20260505041007 | 55 | 188 | 4.3 | 11.3 | 0.00 | 0.00 | 0.00 | 69 | 1010.9 |
| 20260505040511 | 55 | 173 | 4.3 | 11.3 | 0.00 | 0.00 | 0.00 | 68 | 1010.8 |
| 20260505040023 | 55 | 151 | 7.0 | 11.3 | 0.00 | 0.00 | 0.00 | 68 | 1010.7 |
| 20260505035509 | 56 | 170 | 4.3 | 8.7 | 0.00 | 0.00 | 0.00 | 67 | 1010.5 |
| 20260505035008 | 56 | 115 | 3.5 | 8.7 | 0.00 | 0.00 | 0.00 | 66 | 1010.4 |
| 20260505034529 | 56 | 170 | 4.3 | 13.0 | 0.00 | 0.00 | 0.00 | 65 | 1010.2 |
| 20260505034008 | 56 | 161 | 4.3 | 15.6 | 0.00 | 0.00 | 0.00 | 64 | 1010.0 |
| 20260505033515 | 57 | 164 | 7.0 | 15.6 | 0.00 | 0.00 | 0.00 | 63 | 1009.8 |
| 20260505033040 | 57 | 152 | 3.5 | 15.6 | 0.00 | 0.00 | 0.00 | 61 | 1009.9 |
| 20260505032506 | 57 | 192 | 7.0 | 15.6 | 0.00 | 0.00 | 0.00 | 61 | 1009.8 |
| 20260505032008 | 58 | 159 | 7.8 | 11.3 | 0.00 | 0.00 | 0.00 | 60 | 1009.8 |
| 20260505031516 | 58 | 176 | 5.2 | 13.9 | 0.00 | 0.00 | 0.00 | 57 | 1009.7 |
| 20260505031007 | 59 | 173 | 6.1 | 13.9 | 0.00 | 0.00 | 0.00 | 56 | 1009.6 |
| 20260505030508 | 61 | 177 | 3.5 | 12.2 | 0.00 | 0.00 | 0.00 | 51 | 1009.5 |